Preview of NWS' New Version of Forecast
This preview is not operational and should not be used for support decisions.

Regional Weather Roundup (RWR)

Issued by National Weather Service (NWS)

                            
000
ASUS43 KMKX 220759
RWRWI 

WISCONSIN REGIONAL WEATHER ROUNDUP
NATIONAL WEATHER SERVICE MILWAUKEE/SULLIVAN WI
300 AM CDT MON APR 22 2019

NOTE: "FAIR" INDICATES FEW OR NO CLOUDS BELOW 12,000 FEET WITH NO
SIGNIFICANT WEATHER AND/OR OBSTRUCTIONS TO VISIBILITY.

WIZ001-002-006>008-014>016-023>028-220900-
NORTHWEST WISCONSIN
  
CITY           SKY/WX    TMP DP  RH WIND       PRES   REMARKS
SUPERIOR ARPT  LGT RAIN  39  37  92 NE10G18   30.11S WCI  32          
ASHLAND        LGT RAIN  38  38 100 NE16G25   30.09F WCI  29          
HAYWARD        LGT RAIN  42  41  96 NE9       30.01F                  
SIREN          CLOUDY    42  40  93 NE8       30.01R                  
CUMBERLAND     CLOUDY    43  39  87 NE10      29.96F                  
RICE LAKE      CLOUDY    47  41  78 NE12      29.97F                  
CHETEK         MOCLDY    49  39  67 CALM      29.95F                  
LADYSMITH      CLOUDY    49  40  71 NE6       30.00R                  
EAU CLAIRE     NOT AVBL                                               
MENOMONIE      FAIR      46  31  56 NE7       29.93S                  
NEW RICHMOND   CLOUDY    47  38  73 NE9       29.94S                  
OSCEOLA        CLOUDY    46  41  84 N6        29.99S                  
$$
 
WIZ003>005-009-010-017-018-220900-
NORTH CENTRAL WISCONSIN
  
CITY           SKY/WX    TMP DP  RH WIND       PRES   REMARKS
MANITOWISH WTR RAIN      38  38 100 E7        30.03F WCI  33          
ARBOR VITAE    CLOUDY    42  40  93 SE3       30.01S                  
WOODRUFF       CLOUDY    42  40  93 SE3       30.01S                  
RHINELANDER    CLOUDY    46  35  65 E12       30.02F                  
EAGLE RIVER    LGT RAIN  40  40  99 E5        30.02R                  
LAND O LAKES   RAIN      40  40 100 N6        30.07R                  
PHILLIPS       LGT RAIN  44  41  91 NE7       30.00R                  
TOMAHAWK       CLOUDY    43  36  76 E5        30.01F                  
MEDFORD        FAIR      43  33  68 E13       29.97F                  
MERRILL        FAIR      43  36  74 E10       30.01F                  
$$
 
WIZ029-030-035-036-043>047-220900-
CENTRAL WISCONSIN
  
CITY           SKY/WX    TMP DP  RH WIND       PRES   REMARKS
WAUSAU         NOT AVBL                                               
MOSINEE        FAIR      45  34  65 NE13      30.00S                  
MARSHFIELD     MOCLDY    49  40  71 E14       29.95S                  
STEVENS POINT  MOCLDY    46  35  67 NE10      29.99S                  
WAUPACA        FAIR      49  37  65 NE5       29.99S                  
WAUTOMA        FAIR      53  41  63 NE9       29.97S                  
WISC RAPIDS    FAIR      52  36  54 E8        29.96S                  
CAMP DOUGLAS   NOT AVBL                                               
$$
 
WIZ011>013-019>022-031-037>040-048>050-220900-
NORTHEAST WISCONSIN
  
CITY           SKY/WX    TMP DP  RH WIND       PRES   REMARKS
ANTIGO         FAIR      41  33  74 NE12      30.04R                  
SHAWANO        FAIR      46  35  66 NE10      30.03R                  
OCONTO         FAIR      44  35  71 N7        30.03R                  
STURGEON BAY   FAIR      44  34  67 E6        30.01F                  
GREEN BAY      MOCLDY    44  36  73 NE10      30.01F                  
MANITOWOC      FAIR      47  38  71 CALM      30.01S                  
APPLETON       FAIR      46  32  57 NE8       29.97F                  
CLINTONVILLE   FAIR      45  34  66 NE9       30.01S                  
OSHKOSH        FAIR      57  44  62 NE5       29.97S                  
$$
 
WIZ032>034-041-042-053>061-220900-
SOUTHWEST WISCONSIN
  
CITY           SKY/WX    TMP DP  RH WIND       PRES   REMARKS
LA CROSSE      FAIR      66  44  45 S12       29.86S                  
SPARTA         FAIR      67  45  44 S3G16     29.89F                  
VIROQUA        FAIR      62  46  56 S10       29.90F                  
BOSCOBEL       FAIR      66  44  45 VRB5      29.91S                  
PRAIRIE DU CHI FAIR      67  41  38 S12G17    29.89S                  
PLATTEVILLE    FAIR      59  46  62 SE7       29.94F                  
$$

WIZ056-057-062-063-064-067-068-220900-
SOUTH CENTRAL WISCONSIN
  
CITY           SKY/WX    TMP DP  RH WIND       PRES   REMARKS
REEDSBURG      FAIR      63  44  49 S10       29.92F                  
BARABOO/DELLS  FAIR      59  42  52 S13       29.93F                  
LONE ROCK      NOT AVBL                                               
MINERAL POINT  FAIR      61  45  55 SE10      29.94F                  
MADISON        FAIR      60  42  51 S12       29.96S                  
MIDDLETON      FAIR      62  42  49 S7        29.97S                  
WATERTOWN      FAIR      60  41  49 S10       29.98R                  
MONROE         FAIR      59  41  51 MISG      29.97S                  
JANESVILLE     FAIR      59  39  47 S12       29.98F                  
$$
 
WIZ051-052-058>065-066-070>072-220900-
SOUTHEAST WISCONSIN
  
CITY           SKY/WX    TMP DP  RH WIND       PRES   REMARKS
MILWAUKEE      FAIR      49  38  65 SE6       30.01S                  
WAUKESHA       FAIR      59  36  41 S7        30.01S                  
MILWAUKEE/TIMM FAIR      59  34  38 S6        30.01S                  
RACINE         FAIR      52  39  61 S7        30.04R                  
KENOSHA        FAIR      58  39  49 S6        30.02S                  
FOND DU LAC    FAIR      58  43  57 S9        29.97S                  
SHEBOYGAN      FAIR      49  37  63 S5        30.01S                  
WEST BEND      FAIR      55  37  50 SE6       30.00S                  
JUNEAU         FAIR      60  41  50 S10       29.98S                  
$$

LSZ147-162-220900-
LAKE SUPERIOR
  
STATION/POSITION TIME  TEMP    WIND        PRES    WAVE
                       AIR SEA DIR/SP/G            HT/PER
                 (UTC) (F)     (DEG/KT/KT) (MB)    (FT/S)
$$
 
LMZ867-665-643>646-220900-
LAKE MICHIGAN
  
STATION/POSITION TIME  TEMP    WIND        PRES    WAVE
                       AIR SEA DIR/SP/G            HT/PER
                 (UTC) (F)     (DEG/KT/KT) (MB)    (FT/S)
NORTHPORT PIER   0740   39      70/  5/  9 1016.9F
KEWAUNEE LAKESHO 0724   43      60/  4/  6 1015.7
SHEBOYGAN LAKESH 0700   47     180/ 17/ 18 1016.5R
MILWAUKEE LAKESH 0730   45                   N/A
KENOSHA   LAKESH 0700   47     180/ 10/ 13 1016.6
$$

TC  - TEMPERATURE IN CELSIUS
VSB - VISIBILITY IN STATUTE MILES
WCI - WIND CHILL INDEX
HX  - HEAT INDEX